TimeEDT,TemperatureF,Dew PointF,Humidity,Sea Level PressureIn,VisibilityMPH,Wind Direction,Wind SpeedMPH,Gust SpeedMPH,PrecipitationIn,Events,Conditions,WindDirDegrees,DateUTC
12:53 AM,57.9,46.9,67,30.08,10.0,WNW,12.7,-,N/A,,Overcast,290,2012-10-05 04:53:00
1:53 AM,57.0,45.0,64,30.08,10.0,West,13.8,23.0,N/A,,Overcast,280,2012-10-05 05:53:00
2:53 AM,55.0,42.1,62,30.08,10.0,West,13.8,18.4,N/A,,Clear,280,2012-10-05 06:53:00
4:53 AM,53.1,43.0,69,30.10,10.0,West,11.5,21.9,N/A,,Partly Cloudy,280,2012-10-05 08:53:00
5:53 AM,52.0,43.0,71,30.10,10.0,WNW,8.1,-,N/A,,Partly Cloudy,290,2012-10-05 09:53:00
6:53 AM,50.0,42.1,74,30.11,10.0,West,10.4,-,N/A,,Scattered Clouds,270,2012-10-05 10:53:00
7:53 AM,48.9,41.0,74,30.11,10.0,WNW,10.4,16.1,N/A,,Partly Cloudy,290,2012-10-05 11:53:00
8:22 AM,50.0,42.8,76,30.10,10.0,West,9.2,-,N/A,,Mostly Cloudy,280,2012-10-05 12:22:00
8:53 AM,48.9,41.0,74,30.12,10.0,West,11.5,-,N/A,,Mostly Cloudy,280,2012-10-05 12:53:00
9:49 AM,50.0,41.0,71,30.11,10.0,West,9.2,-,N/A,,Scattered Clouds,280,2012-10-05 13:49:00
9:53 AM,50.0,41.0,71,30.12,10.0,WNW,10.4,-,N/A,,Scattered Clouds,290,2012-10-05 13:53:00
10:39 AM,50.0,41.0,71,30.12,10.0,West,10.4,-,N/A,,Mostly Cloudy,270,2012-10-05 14:39:00
10:53 AM,50.0,41.0,71,30.13,10.0,WNW,11.5,-,N/A,,Mostly Cloudy,290,2012-10-05 14:53:00
11:53 AM,50.0,41.0,71,30.12,10.0,West,12.7,-,N/A,,Mostly Cloudy,260,2012-10-05 15:53:00
12:04 PM,51.8,41.0,67,30.11,10.0,West,9.2,-,N/A,,Scattered Clouds,280,2012-10-05 16:04:00
12:53 PM,50.0,41.0,71,30.12,10.0,West,12.7,-,N/A,,Mostly Cloudy,270,2012-10-05 16:53:00
1:53 PM,50.0,39.9,68,30.11,10.0,West,12.7,-,N/A,,Overcast,270,2012-10-05 17:53:00
2:53 PM,50.0,39.9,68,30.07,10.0,WSW,8.1,-,0.00,,Overcast,250,2012-10-05 18:53:00
3:53 PM,50.0,39.0,66,30.05,10.0,SW,11.5,-,N/A,,Overcast,230,2012-10-05 19:53:00
4:53 PM,48.9,41.0,74,30.05,10.0,WSW,10.4,-,N/A,,Overcast,240,2012-10-05 20:53:00
5:41 PM,48.2,41.0,76,30.04,10.0,WSW,12.7,-,0.00,,Overcast,240,2012-10-05 21:41:00
5:53 PM,48.9,41.0,74,30.05,10.0,WSW,9.2,19.6,0.00,,Overcast,240,2012-10-05 21:53:00
6:08 PM,48.2,41.0,76,30.03,10.0,SW,9.2,-,N/A,,Overcast,230,2012-10-05 22:08:00
6:53 PM,48.9,41.0,74,30.05,10.0,West,12.7,-,N/A,,Overcast,260,2012-10-05 22:53:00
7:53 PM,50.0,37.0,61,30.03,10.0,WSW,10.4,-,N/A,,Overcast,250,2012-10-05 23:53:00
8:53 PM,46.0,41.0,83,30.04,10.0,Variable,4.6,-,N/A,,Overcast,0,2012-10-06 00:53:00
9:53 PM,50.0,32.0,50,30.02,10.0,WNW,12.7,24.2,N/A,,Mostly Cloudy,290,2012-10-06 01:53:00
10:53 PM,48.9,33.1,54,30.03,10.0,WNW,15.0,21.9,N/A,,Overcast,300,2012-10-06 02:53:00
11:53 PM,48.9,34.0,56,30.03,10.0,WNW,13.8,21.9,N/A,,Overcast,290,2012-10-06 03:53:00